EW8714 Weather Reports


Display with metric or nautical units.
time (UTC)temp
F
wind
direction
speed
MPH
gust
MPH
rain 1hr
in
rain 24hr
in
rain mn
in
humidity
%
barometer
mb
20260502205511 70 98 3.0 9.0 0.00 0.00 0.00 15 1019.0
20260502205012 70 82 3.0 9.0 0.00 0.00 0.00 11 1019.0
20260502204512 70 75 3.0 8.0 0.00 0.00 0.00 13 1019.1
20260502204010 69 113 4.0 8.0 0.00 0.00 0.00 11 1019.2
20260502203508 69 94 2.0 9.0 0.00 0.00 0.00 13 1019.2
20260502203009 69 76 6.0 9.0 0.00 0.00 0.00 16 1019.3
20260502202508 69 108 5.0 8.0 0.00 0.00 0.00 13 1019.3
20260502202007 69 35 3.0 7.0 0.00 0.00 0.00 12 1019.4
20260502201514 69 51 3.0 7.0 0.00 0.00 0.00 15 1019.4
20260502201012 69 86 2.0 7.0 0.00 0.00 0.00 13 1019.4
20260502200511 69 87 2.0 12.0 0.00 0.00 0.00 14 1019.5
20260502200011 68 10 4.0 12.0 0.00 0.00 0.00 14 1019.6
20260502195510 68 99 4.0 12.0 0.00 0.00 0.00 17 1019.6
20260502195009 67 86 2.0 7.0 0.00 0.00 0.00 16 1019.7
20260502194514 67 120 3.0 7.0 0.00 0.00 0.00 14 1019.9
20260502194014 68 96 4.0 7.0 0.00 0.00 0.00 16 1019.8
20260502193515 67 101 3.0 7.0 0.00 0.00 0.00 16 1019.9
20260502193014 68 129 3.0 10.0 0.00 0.00 0.00 17 1019.9
20260502192513 67 57 3.0 10.0 0.00 0.00 0.00 15 1020.1
20260502192012 67 109 5.0 8.0 0.00 0.00 0.00 16 1020.0
20260502191512 67 82 2.0 8.0 0.00 0.00 0.00 17 1020.1
20260502191011 67 94 3.0 8.0 0.00 0.00 0.00 20 1020.2
20260502190513 67 120 2.0 7.0 0.00 0.00 0.00 18 1020.3
20260502190017 66 55 2.0 8.0 0.00 0.00 0.00 17 1020.4
20260502185520 66 113 4.0 8.0 0.00 0.00 0.00 17 1020.4
20260502185015 65 102 1.0 7.0 0.00 0.00 0.00 18 1020.5
20260502184521 67 30 1.0 5.0 0.00 0.00 0.00 21 1020.7
20260502184015 66 27 2.0 6.0 0.00 0.00 0.00 19 1020.7
20260502183514 65 24 3.0 6.0 0.00 0.00 0.00 20 1020.7
20260502183015 64 298 3.0 8.0 0.00 0.00 0.00 21 1020.8
20260502182513 63 98 4.0 9.0 0.00 0.00 0.00 19 1020.9
20260502182012 65 102 6.0 9.0 0.00 0.00 0.00 21 1021.0
20260502181521 65 75 2.0 8.0 0.00 0.00 0.00 18 1021.1
20260502181021 64 63 3.0 12.0 0.00 0.00 0.00 20 1021.1
20260502180518 66 114 4.0 12.0 0.00 0.00 0.00 20 1021.2
20260502170516 61 188 4.0 7.0 0.00 0.00 0.00 20 1021.8
20260502164021 61 207 4.0 7.0 0.00 0.00 0.00 21 1022.0
20260502163519 62 72 2.0 6.0 0.00 0.00 0.00 22 1022.0
20260502163031 62 28 2.0 6.0 0.00 0.00 0.00 22 1022.0
20260502162523 62 360 3.0 6.0 0.00 0.00 0.00 24 1022.0
20260502162028 62 356 1.0 5.0 0.00 0.00 0.00 24 1022.0
20260502161524 61 271 1.0 4.0 0.00 0.00 0.00 25 1022.0
20260502161022 60 269 2.0 4.0 0.00 0.00 0.00 23 1022.1
20260502160524 60 215 1.0 6.0 0.00 0.00 0.00 26 1022.0
20260502152023 57 212 1.0 6.0 0.00 0.00 0.00 32 1022.5
20260502151510 56 212 3.0 6.0 0.00 0.00 0.00 32 1022.5
20260502151008 55 214 1.0 6.0 0.00 0.00 0.00 33 1022.5
20260502150508 55 215 2.0 6.0 0.00 0.00 0.00 33 1022.6
20260502130511 38 39 0.0 0.0 0.00 0.00 0.00 62 1022.6
20260502123515 33 39 0.0 0.0 0.00 0.00 0.00 67 1022.5
20260502123012 33 39 0.0 0.0 0.00 0.00 0.00 66 1022.4
20260502122512 33 39 0.0 0.0 0.00 0.00 0.00 65 1022.5
20260502122010 33 39 0.0 0.0 0.00 0.00 0.00 65 1022.3
20260502121513 34 39 0.0 0.0 0.00 0.00 0.00 64 1022.4
20260502121012 34 39 0.0 0.0 0.00 0.00 0.00 63 1022.3
20260502120511 35 39 0.0 0.0 0.00 0.00 0.00 62 1022.4
20260502115513 35 39 0.0 0.0 0.00 0.00 0.00 61 1022.3
20260502115012 36 39 0.0 0.0 0.00 0.00 0.00 61 1022.2
20260502114513 36 39 0.0 0.0 0.00 0.00 0.00 60 1022.2
20260502114012 36 39 0.0 0.0 0.00 0.00 0.00 60 1022.1
20260502113512 37 39 0.0 0.0 0.00 0.00 0.00 60 1022.1
20260502113011 37 39 0.0 0.0 0.00 0.00 0.00 59 1022.1
20260502112510 37 39 0.0 0.0 0.00 0.00 0.00 59 1022.1
20260502112014 37 39 0.0 0.0 0.00 0.00 0.00 59 1022.0
20260502111512 36 39 0.0 0.0 0.00 0.00 0.00 59 1021.9
20260502111012 36 39 0.0 0.0 0.00 0.00 0.00 59 1022.0
20260502110512 37 39 0.0 0.0 0.00 0.00 0.00 58 1021.9
20260502110013 37 39 0.0 0.0 0.00 0.00 0.00 58 1021.9
20260502105514 37 39 0.0 0.0 0.00 0.00 0.00 59 1021.9
20260502105012 37 39 0.0 0.0 0.00 0.00 0.00 60 1021.9
20260502104512 36 39 0.0 0.0 0.00 0.00 0.00 60 1021.9
20260502104011 36 39 0.0 0.0 0.00 0.00 0.00 62 1022.0
20260502103511 36 39 0.0 0.0 0.00 0.00 0.00 62 1022.0
20260502103016 35 39 0.0 0.0 0.00 0.00 0.00 62 1021.8
20260502102516 35 39 0.0 0.0 0.00 0.00 0.00 62 1022.0
20260502102016 35 39 0.0 0.0 0.00 0.00 0.00 60 1022.0
20260502101517 36 39 0.0 0.0 0.00 0.00 0.00 62 1021.9
20260502101016 35 39 0.0 0.0 0.00 0.00 0.00 63 1021.8
20260502100514 36 39 0.0 0.0 0.00 0.00 0.00 60 1021.8
20260502091519 41 39 1.0 5.0 0.00 0.00 0.00 50 1021.6
20260502091018 42 39 0.0 5.0 0.00 0.00 0.00 50 1021.6
20260502090520 42 37 1.0 5.0 0.00 0.00 0.00 48 1021.5
20260502071522 42 49 1.0 3.0 0.00 0.00 0.00 48 1021.6
20260502071021 42 49 2.0 3.0 0.00 0.00 0.00 49 1021.7
20260502070522 41 49 2.0 3.0 0.00 0.00 0.00 50 1021.7
20260502070032 41 49 1.0 2.0 0.00 0.00 0.00 53 1021.8
20260502065524 41 49 1.0 2.0 0.00 0.00 0.00 53 1021.8
20260502065021 42 49 1.0 2.0 0.00 0.00 0.00 52 1021.8
20260502064526 42 49 1.0 3.0 0.00 0.00 0.00 50 1021.8
20260502064025 43 49 1.0 3.0 0.00 0.00 0.00 47 1021.9
20260502063524 43 49 2.0 3.0 0.00 0.00 0.00 47 1021.8
20260502063030 43 49 2.0 3.0 0.00 0.00 0.00 48 1021.8
20260502062526 45 49 2.0 4.0 0.00 0.00 0.00 47 1021.8
20260502062026 46 49 2.0 4.0 0.00 0.00 0.00 43 1021.9
20260502061505 46 50 3.0 4.0 0.00 0.00 0.00 41 1021.9
20260502061004 45 53 3.0 4.0 0.00 0.00 0.00 41 1021.9
20260502060502 45 54 2.0 4.0 0.00 0.00 0.00 43 1021.9
20260502060026 45 56 1.0 3.0 0.00 0.00 0.00 50 1021.9
20260502055533 45 56 2.0 3.0 0.00 0.00 0.00 50 1021.9
20260502055025 46 56 1.0 2.0 0.00 0.00 0.00 46 1021.9
20260502054523 45 56 0.0 2.0 0.00 0.00 0.00 44 1021.8
20260502054023 45 56 1.0 2.0 0.00 0.00 0.00 46 1021.7
20260502053525 45 56 1.0 2.0 0.00 0.00 0.00 46 1021.6
20260502053006 44 56 0.0 3.0 0.00 0.00 0.00 47 1021.6
20260502052509 44 56 2.0 3.0 0.00 0.00 0.00 46 1021.6
20260502052006 44 56 1.0 2.0 0.00 0.00 0.00 46 1021.5
20260502051517 44 56 0.0 2.0 0.00 0.00 0.00 45 1021.5
20260502051005 45 56 0.0 0.0 0.00 0.00 0.00 45 1021.5
20260502050505 45 56 0.0 0.0 0.00 0.00 0.00 45 1021.5
20260502050006 45 56 0.0 0.0 0.00 0.00 0.00 44 1021.5
20260502045506 45 56 0.0 0.0 0.00 0.00 0.00 47 1021.5
20260502045007 45 56 0.0 0.0 0.00 0.00 0.00 49 1021.5
20260502044510 45 56 0.0 0.0 0.00 0.00 0.00 47 1021.5
20260502044009 45 56 0.0 0.0 0.00 0.00 0.00 44 1021.5
20260502043509 46 56 0.0 0.0 0.00 0.00 0.00 46 1021.5
20260502043014 46 56 0.0 0.0 0.00 0.00 0.00 46 1021.5
20260502042510 46 56 0.0 0.0 0.00 0.00 0.00 45 1021.4
20260502042009 46 56 0.0 0.0 0.00 0.00 0.00 42 1021.4
20260502041511 46 56 0.0 1.0 0.00 0.00 0.00 43 1021.3
20260502041010 47 56 0.0 1.0 0.00 0.00 0.00 41 1021.3
20260502040510 48 56 0.0 1.0 0.00 0.00 0.00 40 1021.2
20260502040011 49 56 0.0 0.0 0.00 0.00 0.00 38 1021.2
20260502035511 51 56 0.0 1.0 0.00 0.00 0.00 37 1021.1
20260502035014 51 56 0.0 2.0 0.00 0.00 0.00 31 1021.1
20260502034509 51 56 0.0 2.0 0.00 0.00 0.00 30 1021.0
20260502034008 52 56 0.0 2.0 0.00 0.00 0.00 29 1021.0
20260502033508 52 56 1.0 3.0 0.00 0.00 0.00 28 1020.9
20260502033012 52 56 1.0 3.0 0.00 0.00 0.00 28 1020.8
20260502032515 52 56 1.0 3.0 0.00 0.00 0.00 28 1020.7
20260502032012 52 56 1.0 3.0 0.00 0.00 0.00 29 1020.6
20260502031511 52 56 1.0 4.0 0.00 0.00 0.00 28 1020.5
20260502031010 51 55 1.0 4.0 0.00 0.00 0.00 28 1020.5
20260502030510 51 55 0.0 3.0 0.00 0.00 0.00 29 1020.4
20260502030010 51 55 0.0 1.0 0.00 0.00 0.00 29 1020.4
20260502025513 52 55 0.0 2.0 0.00 0.00 0.00 28 1020.2
20260502025011 52 55 0.0 2.0 0.00 0.00 0.00 28 1020.1
20260502024531 52 55 0.0 2.0 0.00 0.00 0.00 28 1020.1
20260502024012 52 55 0.0 1.0 0.00 0.00 0.00 28 1019.9
20260502023512 52 55 0.0 0.0 0.00 0.00 0.00 29 1019.9
20260502023011 53 55 0.0 0.0 0.00 0.00 0.00 27 1019.8
20260502022511 54 55 0.0 0.0 0.00 0.00 0.00 27 1019.7
20260502022010 55 55 0.0 1.0 0.00 0.00 0.00 26 1019.6
20260502021514 56 55 0.0 4.0 0.00 0.00 0.00 24 1019.5
20260502021014 56 55 1.0 4.0 0.00 0.00 0.00 23 1019.5
20260502020514 56 55 1.0 3.0 0.00 0.00 0.00 23 1019.5
20260502020013 57 55 1.0 4.0 0.00 0.00 0.00 23 1019.4
20260502015513 57 55 1.0 6.0 0.00 0.00 0.00 22 1019.4
20260502015012 57 55 3.0 7.0 0.00 0.00 0.00 22 1019.3
20260502014524 58 49 3.0 7.0 0.00 0.00 0.00 22 1019.3
20260502014015 58 18 1.0 5.0 0.00 0.00 0.00 22 1019.2
20260502013511 58 12 0.0 3.0 0.00 0.00 0.00 22 1019.1
20260502013017 59 12 0.0 3.0 0.00 0.00 0.00 22 1019.1
20260502012518 59 12 1.0 3.0 0.00 0.00 0.00 21 1019.0
20260502012018 60 12 1.0 4.0 0.00 0.00 0.00 21 1018.9
20260502011511 60 12 2.0 6.0 0.00 0.00 0.00 21 1018.9
20260502011010 60 12 2.0 6.0 0.00 0.00 0.00 21 1018.8
20260502010511 60 33 2.0 4.0 0.00 0.00 0.00 20 1018.7
20260502010015 60 34 1.0 4.0 0.00 0.00 0.00 20 1018.7
20260502005514 60 32 2.0 4.0 0.00 0.00 0.00 19 1018.7
20260502005015 60 32 1.0 4.0 0.00 0.00 0.00 20 1018.7
20260502004514 60 32 2.0 5.0 0.00 0.00 0.00 20 1018.7
20260502004017 60 32 2.0 7.0 0.00 0.00 0.00 20 1018.7
20260502003518 60 28 2.0 7.0 0.00 0.00 0.00 20 1018.6
20260502003011 60 50 2.0 6.0 0.00 0.00 0.00 20 1018.7
20260502002511 60 51 3.0 6.0 0.00 0.00 0.00 20 1018.7
20260502002013 61 2 2.0 8.0 0.00 0.00 0.00 20 1018.6
20260502001515 61 1 2.0 8.0 0.00 0.00 0.00 20 1018.6
20260502001015 61 50 3.0 9.0 0.00 0.00 0.00 19 1018.6
20260502000518 62 1 5.0 9.0 0.00 0.00 0.00 18 1018.5
20260502000014 63 51 4.0 10.0 0.00 0.00 0.00 19 1018.5
20260501235516 63 30 3.0 14.0 0.00 0.00 0.00 18 1018.4
20260501235013 63 28 5.0 14.0 0.00 0.00 0.00 18 1018.4
20260501234513 63 82 2.0 8.0 0.00 0.00 0.00 17 1018.4
20260501234013 63 82 2.0 11.0 0.00 0.00 0.00 17 1018.4
20260501233611 64 5 4.0 11.0 0.00 0.00 0.00 18 1018.4
20260501233014 65 40 5.0 8.0 0.00 0.00 0.00 16 1018.5
20260501232515 64 30 2.0 6.0 0.00 0.00 0.00 17 1018.4
20260501232013 64 33 1.0 8.0 0.00 0.00 0.00 16 1018.4
20260501231519 64 335 3.0 8.0 0.00 0.00 0.00 17 1018.4
20260501231017 64 356 3.0 9.0 0.00 0.00 0.00 17 1018.5
20260501230512 64 4 4.0 9.0 0.00 0.00 0.00 17 1018.4
20260501230016 64 297 1.0 8.0 0.00 0.00 0.00 16 1018.4
20260501225522 64 288 4.0 12.0 0.00 0.00 0.00 16 1018.5
20260501225015 63 291 6.0 12.0 0.00 0.00 0.00 17 1018.4
20260501224516 63 287 6.0 11.0 0.00 0.00 0.00 16 1018.4
20260501224018 64 36 2.0 14.0 0.00 0.00 0.00 17 1018.4
20260501223515 63 21 5.0 14.0 0.00 0.00 0.00 17 1018.5
20260501223015 63 219 2.0 10.0 0.00 0.00 0.00 16 1018.5
20260501222515 63 27 3.0 10.0 0.00 0.00 0.00 17 1018.6
20260501222015 62 264 3.0 11.0 0.00 0.00 0.00 20 1018.4
20260501221523 62 32 3.0 11.0 0.00 0.00 0.00 17 1018.5
20260501221021 63 52 4.0 6.0 0.00 0.00 0.00 21 1018.6
20260501220523 63 31 2.0 9.0 0.00 0.00 0.00 17 1018.7
20260501220022 63 359 3.0 12.0 0.00 0.00 0.00 17 1018.7
20260501215518 64 24 4.0 12.0 0.00 0.00 0.00 17 1018.8
20260501215021 63 264 4.0 7.0 0.00 0.00 0.00 18 1018.8
20260501214522 62 343 3.0 8.0 0.00 0.00 0.00 18 1019.0
20260501214020 61 331 1.0 8.0 0.00 0.00 0.00 17 1019.1
20260501213519 64 360 4.0 9.0 0.00 0.00 0.00 16 1019.2
20260501213018 63 356 5.0 13.0 0.00 0.00 0.00 17 1019.3
20260501212518 63 335 3.0 13.0 0.00 0.00 0.00 17 1019.4
20260501212018 63 360 4.0 9.0 0.00 0.00 0.00 17 1019.4
20260501211519 63 354 3.0 9.0 0.00 0.00 0.00 18 1019.5
20260501211018 62 358 4.0 9.0 0.00 0.00 0.00 17 1019.5
20260501210517 62 97 3.0 7.0 0.00 0.00 0.00 18 1019.6
20260501210021 62 349 1.0 8.0 0.00 0.00 0.00 16 1019.7